Weather observations for the past three days for
Maxwell Air Force Base / Montgomery
Imperial (Metric)
Date Time (cdt) Wind (mph) Vis. (mi.) Weather Sky Cond. Temperature (ºF) Relative Humidity Wind Chill (°F) Heat Index (°F) Pressure Precipitation (in)
Air Dwpt 6 hour altimeter (in) sea level (mb) 1 hr 3 hr 6 hr
Max. Min.
22 13:55 S 5 10.00 Partly Cloudy SCT027 87.3 72.5 62% 94 30 1016.0
22 12:55 Calm 10.00 Overcast BKN025 BKN040 OVC048 84.6 74.1 84.7 73.2 71% 92 30.03 1017.0
22 11:55 S 3 10.00 Mostly Cloudy FEW016 SCT030 BKN037 BKN190 81.9 72.7 74% 87 30.04 1017.4
22 10:55 Calm 10.00 Overcast BKN013 OVC170 79 72.9 82% 82 30.05 1017.7
22 09:55 Calm 10.00 Overcast OVC007 77 72.9 87% 78 30.06 1018.0
22 08:55 Calm 10.00 Overcast OVC008 76.1 72 87% 77 30.05 1017.7
22 07:55 Calm 10.00 Overcast OVC009 74.8 71.2 89% 30.04 1017.4
22 06:55 Calm 10.00 Mostly Cloudy BKN210 73 70.5 73 71.4 92% 30.02 1016.7
22 05:55 Calm 10.00 Partly Cloudy SCT200 SCT230 72 70.3 95% 30 1016.0
22 04:55 Calm 10.00 A Few Clouds FEW210 72 70.3 95% 29.99 1015.7
22 03:55 Calm 10.00 Mostly Cloudy BKN220 72 70.3 95% 29.98 1015.3
22 02:55 Calm 10.00 Mostly Cloudy FEW005 BKN210 72.5 70.9 95% 29.99 1015.6
22 01:55 S 3 10.00 Overcast SCT150 OVC200 72.7 70.5 93% 30.01 1016.3
22 00:55 S 3 10.00 Mostly Cloudy BKN140 72.9 71.1 76.5 72.5 94% 30.02 1016.7 0.32
21 23:55 SE 3 10.00 Mostly Cloudy SCT140 BKN200 72.5 70.9 95% 30.04 1017.3
21 22:55 Calm 10.00 Light Drizzle SCT006 BKN050 BKN095 BKN120 73.9 71.4 92% 30.05 1017.7 0.02
21 21:55 S 3 4.00 Light Rain Fog/Mist BKN095 OVC130 73.8 71.6 93% 30.04 1017.3 0.15 0.3
21 20:55 SE 6 4.00 Rain Fog/Mist OVC095 74.7 71.8 91% 30.03 1017.0 0.15
21 19:55 NW 5 2.50 Thunderstorm Light Rain Fog/Mist FEW010 FEW015 SCT032 SCT041 BKN120 75 72.1 91% 74 30.01 1016.3
21 18:55 W 5 1.25 Fog/Mist FEW008 OVC110 76.5 73.9 91.2 76.1 92% 77 30.01 1016.3 0.18 0.18
21 17:55 W 7 10.00 Mostly Cloudy FEW060 SCT080 BKN090 BKN110 78.1 73.8 87% 81 29.99 1015.6
21 16:55 N 8 10.00 Mostly Cloudy BKN035 BKN046 BKN070 78.4 73.2 84% 81 29.98 1015.3
21 15:55 N 13 10.00 Mostly Cloudy BKN033 BKN048 82.6 72.5 72% 88 29.97 1015.0
21 14:55 S 5 10.00 Mostly Cloudy BKN030 BKN090 88.3 74.5 64% 98 29.97 1014.9
21 13:55 S 5 10.00 Mostly Cloudy FEW025 SCT032 BKN055 88.2 75.2 66% 98 29.99 1015.6
21 12:55 W 5 10.00 Light Drizzle FEW026 BKN090 BKN110 85.3 75.9 88.3 78.3 74% 95 29.99 1015.6
21 11:55 S 9 10.00 Mostly Cloudy FEW032 SCT042 BKN200 87.6 73.8 64% 96 30.02 1016.6
21 10:55 SW 3 10.00 Mostly Cloudy SCT024 BKN033 86.5 74.1 67% 95 30.03 1017.0
21 09:55 W 5 10.00 Mostly Cloudy BKN017 BKN050 84.2 74.5 73% 92 30.04 1017.3
21 08:55 SW 5 10.00 Mostly Cloudy BKN015 81.9 74.3 78% 88 30.04 1017.3
21 07:55 Calm 10.00 Mostly Cloudy SCT008 BKN100 79.9 75.2 86% 85 30.04 1017.3
21 06:55 S 5 10.00 A Few Clouds FEW008 78.4 76.1 78.4 75.7 93% 82 30.03 1017.0
21 05:55 Calm 10.00 Mostly Cloudy SCT008 BKN013 BKN080 77.2 75.2 94% 78 30.03 1017.0
21 04:55 Calm 10.00 Overcast OVC005 77.5 75.4 93% 79 30.02 1016.6
21 03:55 Calm 10.00 Overcast OVC005 77.2 75 93% 78 30.01 1016.3
21 02:55 Calm 10.00 Mostly Cloudy BKN008 76.1 74.1 94% 76 30.02 1016.6
21 01:55 Calm 10.00 Partly Cloudy SCT037 76.6 73.8 91% 77 30.02 1016.7
21 00:55 S 6 10.00 Fair CLR 76.3 73.8 82 76.1 92% 76 30.03 1017.0
20 23:55 S 5 10.00 Fair CLR 76.3 73.8 92% 76 30.04 1017.3
20 22:55 S 5 10.00 Partly Cloudy SCT035 77.9 73.9 88% 80 30.04 1017.3
20 21:55 S 6 10.00 Overcast BKN022 OVC031 78.3 74.7 89% 81 30.04 1017.3
20 20:55 S 3 10.00 Overcast OVC018 79.7 75.7 88% 85 30.03 1017.0
20 19:55 Calm 10.00 Partly Cloudy SCT020 81.3 75.9 84% 88 30 1016.0
20 18:55 S 9 10.00 Light Drizzle SCT025 SCT036 BKN055 82.2 75.7 84.2 76.5 81% 90 30 1016.0 0.21
20 17:55 S 5 10.00 Mostly Cloudy SCT021 BKN046 83.7 75.2 76% 92 30 1016.0
20 16:55 S 7 10.00 A Few Clouds FEW027 83.1 74.3 75% 90 30 1016.0
20 15:55 S 3 10.00 Mostly Cloudy SCT160 SCT180 BKN200 83.5 73.8 73% 90 30.02 1016.6 0.21
20 14:55 S 7 10.00 Partly Cloudy SCT140 82.6 74.1 76% 89 30.04 1017.3
20 13:55 SE 8 10.00 Mostly Cloudy FEW048 FEW075 BKN120 BKN210 78.8 75.2 89% 82 30.02 1016.7 0.21
20 12:55 S 12 1.75 Thunderstorm Heavy Rain Fog/Mist SCT005 BKN025 OVC032 76.5 74.3 88.7 76.5 93% 77 30.06 1018.0 0.23 0.24
20 11:55 NE 6 8.00 Rain SCT029 BKN036 BKN048 BKN070 81 72.1 75% 85 30.03 1017.0 0.01
20 10:55 S 9 10.00 Thunderstorm SCT023 BKN028 BKN038 86.9 75 68% 96 30.03 1017.0
20 09:55 S 9 10.00 Thunderstorm SCT017 BKN024 BKN048 BKN075 OVC090 85.6 76.6 75% 96 30.05 1017.6
20 08:55 S 5 10.00 Partly Cloudy SCT013 SCT210 82.6 75.7 80% 90 30.06 1018.0
20 07:55 SE 5 10.00 Overcast FEW010 BKN019 OVC090 80.1 74.7 84% 85 30.05 1017.7
20 06:55 SE 6 10.00 Overcast FEW070 OVC140 78.3 74.3 78.4 76.1 88% 81 30.04 1017.3
20 05:55 SE 5 10.00 Mostly Cloudy BKN018 BKN070 BKN140 77.2 73.6 89% 79 30.03 1017.0
20 04:55 Calm 10.00 Overcast OVC065 77 73.8 90% 78 30.02 1016.6
20 03:55 Calm 10.00 Overcast FEW075 OVC130 76.6 74.1 92% 77 30 1016.0
20 02:55 SE 5 10.00 Overcast FEW080 FEW110 OVC130 76.5 74.3 93% 77 30.01 1016.3
20 01:55 Calm 10.00 Overcast OVC130 77 74.5 92% 78 30.02 1016.7
20 00:55 Calm 10.00 Light Rain SCT100 OVC120 77.9 75 81.3 77.7 91% 80 30.04 1017.3
19 23:55 Calm 10.00 Overcast OVC110 78.4 75.6 91% 82 30.05 1017.7
19 22:55 N 3 10.00 Overcast FEW022 BKN032 BKN041 OVC120 78.1 75.2 91% 81 30.05 1017.7
19 21:55 Calm 10.00 Overcast OVC140 78.4 75.2 90% 82 30.02 1016.7
19 20:55 N 3 10.00 Overcast BKN029 OVC140 78.6 73.6 85% 82 30 1016.0
19 19:55 NW 5 10.00 Overcast OVC200 79.9 73.4 81% 84 30 1016.0
19 18:55 Calm 10.00 Mostly Cloudy BKN180 81.3 74.1 87.4 79.3 79% 87 30 1016.0 0.2
19 17:55 SE 6 10.00 Mostly Cloudy FEW160 BKN190 82.6 74.1 76% 89 29.99 1015.6
19 16:55 SE 6 10.00 Mostly Cloudy BKN120 BKN170 BKN210 83.7 73.9 73% 91 29.98 1015.3
19 15:55 SE 10 10.00 Mostly Cloudy SCT014 BKN160 BKN180 83.8 75 75% 92 30 1016.0 0.2
19 14:55 SE 6 10.00 Mostly Cloudy SCT039 BKN160 BKN220 85.3 73.9 69% 93 30.01 1016.3
Date Time (cdt) Wind (mph) Vis. (mi.) Weather Sky Cond. Air Dwpt Max. Min. Relative Humidity Wind Chill (°F) Heat Index (°F) altimeter (in) sea level (mb) 1 hr 3 hr 6 hr
6 hour
Temperature (ºF) Pressure Precipitation (in)